N6403W RJCC-RJSK

Flight info

Callsign N6403W
Flight time 1h 21m
Altitude 20000
Route DALBI Y120 RURUD Y125 IWASE Y144 MAGGY
Aircraft P46T/L-SBDGRWY/SB1

Departure

Time 2026-05-04 00:37
Airport New Chitose Airport (RJCC)

Arrival

Time 2026-05-04 01:58
Airport Akita Airport (RJSK)
Time Latitude Longitude Altitude Speed Heading
2026-05-04 00:31 42.81032 141.66041 75 ft 17 kts 85°
2026-05-04 00:31 42.81048 141.66212 80 ft 18 kts 80°
2026-05-04 00:32 42.81068 141.66396 73 ft 20 kts 83°
2026-05-04 00:32 42.81088 141.66583 71 ft 20 kts 81°
2026-05-04 00:32 42.81108 141.66770 73 ft 20 kts 92°
2026-05-04 00:32 42.81015 141.66875 72 ft 20 kts 171°
2026-05-04 00:33 42.80876 141.66900 70 ft 21 kts 171°
2026-05-04 00:33 42.80555 141.66956 70 ft 24 kts 171°
2026-05-04 00:33 42.80343 141.66990 66 ft 34 kts 173°
2026-05-04 00:34 42.80072 141.67041 74 ft 43 kts 172°
2026-05-04 00:34 42.79802 141.67086 74 ft 41 kts 173°
2026-05-04 00:34 42.79511 141.67143 70 ft 44 kts 167°
2026-05-04 00:34 42.79288 141.67182 74 ft 20 kts 171°
2026-05-04 00:35 42.79218 141.67301 75 ft 20 kts 79°
2026-05-04 00:35 42.79246 141.67497 72 ft 24 kts 80°
2026-05-04 00:35 42.79265 141.67749 77 ft 30 kts 82°
2026-05-04 00:35 42.79259 141.68052 80 ft 35 kts 107°
2026-05-04 00:36 42.79139 141.68357 86 ft 39 kts 130°
2026-05-04 00:36 42.78984 141.68518 86 ft 20 kts 147°
2026-05-04 00:36 42.78944 141.68677 85 ft 20 kts 108°
2026-05-04 00:36 42.78843 141.68803 85 ft 20 kts 159°
2026-05-04 00:37 42.78579 141.68853 84 ft 63 kts 174°
2026-05-04 00:37 42.77973 141.68966 99 ft 107 kts 173°
2026-05-04 00:37 42.77170 141.69134 364 ft 121 kts 170°
2026-05-04 00:37 42.76307 141.69300 719 ft 128 kts 172°
2026-05-04 00:38 42.75419 141.69438 1220 ft 126 kts 174°
2026-05-04 00:38 42.74538 141.69601 1623 ft 130 kts 170°
2026-05-04 00:38 42.73653 141.69798 2157 ft 126 kts 170°
2026-05-04 00:38 42.72786 141.69969 2638 ft 126 kts 171°
2026-05-04 00:39 42.71921 141.70127 3112 ft 125 kts 172°
2026-05-04 00:39 42.71055 141.70300 3563 ft 126 kts 173°
2026-05-04 00:39 42.70190 141.70468 4038 ft 124 kts 175°
2026-05-04 00:39 42.69341 141.70626 4475 ft 123 kts 175°
2026-05-04 00:40 42.68482 141.70792 4859 ft 126 kts 176°
2026-05-04 00:40 42.67608 141.70972 5254 ft 128 kts 177°
2026-05-04 00:40 42.66726 141.71146 5654 ft 129 kts 178°
2026-05-04 00:40 42.65837 141.71320 6042 ft 129 kts 179°
2026-05-04 00:41 42.64943 141.71493 6421 ft 130 kts 180°
2026-05-04 00:41 42.64044 141.71667 6779 ft 131 kts 180°
2026-05-04 00:41 42.63136 141.71842 7171 ft 132 kts 181°
2026-05-04 00:41 42.62236 141.72015 7562 ft 133 kts 182°
2026-05-04 00:42 42.61316 141.72192 7942 ft 134 kts 182°
2026-05-04 00:42 42.60395 141.72370 8346 ft 134 kts 183°
2026-05-04 00:42 42.59478 141.72456 8737 ft 129 kts 193°
2026-05-04 00:42 42.58603 141.72241 9125 ft 126 kts 204°
2026-05-04 00:43 42.57809 141.71776 9495 ft 123 kts 214°
2026-05-04 00:43 42.57123 141.71093 9842 ft 122 kts 224°
2026-05-04 00:43 42.56567 141.70221 10219 ft 123 kts 233°
2026-05-04 00:43 42.56145 141.69208 10601 ft 124 kts 238°
2026-05-04 00:44 42.55732 141.68188 10985 ft 123 kts 237°
2026-05-04 00:44 42.55321 141.67168 11387 ft 123 kts 238°
2026-05-04 00:44 42.54913 141.66150 11798 ft 123 kts 238°
2026-05-04 00:44 42.54510 141.65146 12204 ft 123 kts 238°
2026-05-04 00:45 42.54104 141.64132 12613 ft 122 kts 238°
2026-05-04 00:45 42.53697 141.63118 13004 ft 123 kts 238°
2026-05-04 00:45 42.53289 141.62101 13366 ft 123 kts 238°
2026-05-04 00:45 42.52884 141.61090 13714 ft 121 kts 237°
2026-05-04 00:46 42.52483 141.60090 14062 ft 120 kts 237°
2026-05-04 00:46 42.52084 141.59097 14389 ft 119 kts 237°
2026-05-04 00:46 42.51688 141.58112 14731 ft 119 kts 237°
2026-05-04 00:46 42.51296 141.57136 15073 ft 118 kts 236°
2026-05-04 00:47 42.50906 141.56166 15417 ft 117 kts 236°
2026-05-04 00:47 42.50419 141.55317 15748 ft 114 kts 223°
2026-05-04 00:47 42.49775 141.54685 16091 ft 115 kts 216°
2026-05-04 00:47 42.49032 141.54253 16439 ft 117 kts 211°
2026-05-04 00:48 42.48284 141.53854 16785 ft 115 kts 211°
2026-05-04 00:48 42.47563 141.53415 17113 ft 115 kts 211°
2026-05-04 00:48 42.46816 141.53041 17451 ft 114 kts 211°
2026-05-04 00:48 42.46077 141.52666 17768 ft 113 kts 211°
2026-05-04 00:49 42.45338 141.52297 18037 ft 113 kts 211°
2026-05-04 00:49 42.44620 141.51897 18305 ft 110 kts 215°
2026-05-04 00:49 42.43898 141.51540 18679 ft 104 kts 210°
2026-05-04 00:49 42.43283 141.51272 19226 ft 89 kts 212°
2026-05-04 00:50 42.42690 141.51007 19573 ft 90 kts 212°
2026-05-04 00:50 42.42103 141.50751 19957 ft 88 kts 213°
2026-05-04 00:50 42.41464 141.50460 20007 ft 106 kts 212°
2026-05-04 00:50 42.40707 141.50125 20018 ft 122 kts 211°
2026-05-04 00:51 42.39855 141.49755 20017 ft 134 kts 210°
2026-05-04 00:51 42.38933 141.49359 20015 ft 143 kts 209°
2026-05-04 00:51 42.37961 141.48942 20014 ft 149 kts 209°
2026-05-04 00:51 42.36957 141.48513 20016 ft 153 kts 209°
2026-05-04 00:52 42.35932 141.48078 20013 ft 156 kts 208°
2026-05-04 00:52 42.34891 141.47635 20016 ft 158 kts 208°
2026-05-04 00:52 42.33841 141.47186 20014 ft 159 kts 208°
2026-05-04 00:52 42.32799 141.46741 20013 ft 159 kts 208°
2026-05-04 00:53 42.31738 141.46289 20011 ft 160 kts 208°
2026-05-04 00:53 42.30672 141.45834 20012 ft 162 kts 208°
2026-05-04 00:53 42.29593 141.45372 20009 ft 163 kts 208°
2026-05-04 00:53 42.28505 141.44909 20006 ft 164 kts 208°
2026-05-04 00:54 42.27415 141.44445 20005 ft 164 kts 208°
2026-05-04 00:54 42.26327 141.43982 20003 ft 164 kts 208°
2026-05-04 00:54 42.25240 141.43519 20001 ft 164 kts 208°
2026-05-04 00:54 42.24156 141.43057 20000 ft 164 kts 208°
2026-05-04 00:55 42.23063 141.42592 19973 ft 166 kts 208°
2026-05-04 00:55 42.21942 141.42113 19878 ft 171 kts 208°
2026-05-04 00:55 42.20799 141.41631 19822 ft 173 kts 208°
2026-05-04 00:55 42.19648 141.41144 19751 ft 173 kts 208°
2026-05-04 00:56 42.18491 141.40652 19684 ft 175 kts 208°
2026-05-04 00:56 42.17319 141.40153 19612 ft 177 kts 208°
2026-05-04 00:56 42.16137 141.39650 19535 ft 178 kts 207°
2026-05-04 00:56 42.14952 141.39149 19460 ft 178 kts 207°
2026-05-04 00:57 42.13790 141.38658 19416 ft 176 kts 207°
2026-05-04 00:57 42.12630 141.38169 19414 ft 173 kts 208°
2026-05-04 00:57 42.11489 141.37685 19408 ft 171 kts 208°
2026-05-04 00:57 42.10356 141.37205 19406 ft 170 kts 208°
2026-05-04 00:58 42.09227 141.36725 19405 ft 170 kts 208°
2026-05-04 00:58 42.08099 141.36247 19409 ft 171 kts 208°
2026-05-04 00:58 42.06959 141.35764 19406 ft 172 kts 208°
2026-05-04 00:58 42.05815 141.35281 19404 ft 172 kts 208°
2026-05-04 00:59 42.04675 141.34800 19405 ft 171 kts 208°
2026-05-04 00:59 42.03538 141.34319 19409 ft 171 kts 208°
2026-05-04 00:59 42.02404 141.33839 19407 ft 170 kts 208°
2026-05-04 00:59 42.01273 141.33363 19405 ft 170 kts 208°
2026-05-04 01:00 42.00151 141.32889 19404 ft 169 kts 208°
2026-05-04 01:00 41.99033 141.32416 19408 ft 168 kts 208°
2026-05-04 01:00 41.97918 141.31945 19402 ft 168 kts 208°
2026-05-04 01:00 41.96807 141.31475 19404 ft 168 kts 208°
2026-05-04 01:01 41.95691 141.31005 19401 ft 168 kts 208°
2026-05-04 01:01 41.94571 141.30533 19366 ft 170 kts 208°
2026-05-04 01:01 41.93442 141.30055 19249 ft 174 kts 207°
2026-05-04 01:01 41.92275 141.29563 19131 ft 177 kts 207°
2026-05-04 01:02 41.91090 141.29065 19014 ft 179 kts 207°
2026-05-04 01:02 41.89895 141.28563 18900 ft 180 kts 207°
2026-05-04 01:02 41.88699 141.28060 18779 ft 180 kts 207°
2026-05-04 01:02 41.87511 141.27561 18658 ft 177 kts 207°
2026-05-04 01:03 41.86342 141.27071 18508 ft 175 kts 207°
2026-05-04 01:03 41.85178 141.26581 18344 ft 175 kts 207°
2026-05-04 01:03 41.84016 141.26092 18181 ft 175 kts 207°
2026-05-04 01:03 41.82851 141.25603 18021 ft 176 kts 207°
2026-05-04 01:04 41.82074 141.25276 17915 ft 177 kts 207°
2026-05-04 01:04 41.80897 141.24781 17758 ft 177 kts 207°
2026-05-04 01:04 41.79718 141.24287 17583 ft 178 kts 207°
2026-05-04 01:04 41.78533 141.23791 17417 ft 178 kts 207°
2026-05-04 01:05 41.77373 141.23309 17413 ft 172 kts 208°
2026-05-04 01:05 41.76231 141.22832 17412 ft 171 kts 208°
2026-05-04 01:05 41.75097 141.22357 17401 ft 170 kts 208°
2026-05-04 01:05 41.73969 141.21885 17408 ft 169 kts 208°
2026-05-04 01:06 41.72848 141.21415 17404 ft 169 kts 208°
2026-05-04 01:06 41.71743 141.20953 17403 ft 168 kts 208°
2026-05-04 01:06 41.70627 141.20486 17404 ft 168 kts 208°
2026-05-04 01:06 41.69510 141.20019 17401 ft 168 kts 208°
2026-05-04 01:07 41.68394 141.19553 17414 ft 168 kts 208°
2026-05-04 01:07 41.67270 141.19080 17264 ft 173 kts 208°
2026-05-04 01:07 41.66114 141.18593 17003 ft 174 kts 208°
2026-05-04 01:07 41.64956 141.18111 16744 ft 173 kts 208°
2026-05-04 01:08 41.63812 141.17636 16479 ft 171 kts 208°
2026-05-04 01:08 41.62679 141.17163 16224 ft 170 kts 208°
2026-05-04 01:08 41.61568 141.16700 15973 ft 169 kts 208°
2026-05-04 01:08 41.60430 141.16225 15719 ft 169 kts 208°
2026-05-04 01:09 41.59324 141.15765 15474 ft 168 kts 208°
2026-05-04 01:09 41.58226 141.15311 15415 ft 161 kts 208°
2026-05-04 01:09 41.57181 141.14879 15408 ft 154 kts 208°
2026-05-04 01:09 41.56177 141.14461 15405 ft 149 kts 209°
2026-05-04 01:10 41.55200 141.14054 15407 ft 145 kts 209°
2026-05-04 01:10 41.54241 141.13655 15406 ft 143 kts 209°
2026-05-04 01:10 41.53297 141.13262 15407 ft 141 kts 209°
2026-05-04 01:10 41.52362 141.12873 15407 ft 141 kts 209°
2026-05-04 01:11 41.51400 141.12469 15409 ft 149 kts 209°
2026-05-04 01:11 41.50395 141.12049 15420 ft 154 kts 209°
2026-05-04 01:11 41.49365 141.11621 15427 ft 157 kts 208°
2026-05-04 01:11 41.48318 141.11187 15427 ft 159 kts 208°
2026-05-04 01:12 41.47257 141.10749 15430 ft 160 kts 208°
2026-05-04 01:12 41.46204 141.10314 15430 ft 161 kts 208°
2026-05-04 01:12 41.45140 141.09871 15427 ft 161 kts 208°
2026-05-04 01:12 41.44067 141.09427 15430 ft 162 kts 209°
2026-05-04 01:13 41.42978 141.08977 15429 ft 164 kts 209°
2026-05-04 01:13 41.41883 141.08522 15423 ft 165 kts 208°
2026-05-04 01:13 41.40786 141.08069 15424 ft 165 kts 208°
2026-05-04 01:13 41.39688 141.07615 15425 ft 165 kts 209°
2026-05-04 01:14 41.38587 141.07158 15425 ft 166 kts 208°
2026-05-04 01:14 41.37485 141.06704 15423 ft 166 kts 208°
2026-05-04 01:14 41.36384 141.06250 15421 ft 166 kts 208°
2026-05-04 01:14 41.35283 141.05794 15419 ft 165 kts 208°
2026-05-04 01:15 41.34188 141.05340 15415 ft 165 kts 208°
2026-05-04 01:15 41.33094 141.04889 15415 ft 164 kts 208°
2026-05-04 01:15 41.32004 141.04439 15417 ft 164 kts 208°
2026-05-04 01:15 41.30911 141.03987 15415 ft 165 kts 208°
2026-05-04 01:16 41.29813 141.03534 15425 ft 166 kts 208°
2026-05-04 01:16 41.28711 141.03080 15425 ft 166 kts 208°
2026-05-04 01:16 41.27602 141.02622 15420 ft 167 kts 208°
2026-05-04 01:16 41.26493 141.02164 15420 ft 167 kts 208°
2026-05-04 01:17 41.25381 141.01707 15418 ft 167 kts 208°
2026-05-04 01:17 41.24275 141.01252 15419 ft 166 kts 208°
2026-05-04 01:17 41.23171 141.00797 15417 ft 166 kts 208°
2026-05-04 01:17 41.22079 141.00347 15420 ft 165 kts 208°
2026-05-04 01:18 41.20983 140.99898 15423 ft 164 kts 208°
2026-05-04 01:18 41.19891 140.99449 15421 ft 164 kts 208°
2026-05-04 01:18 41.18800 140.99000 15420 ft 164 kts 208°
2026-05-04 01:18 41.17713 140.98553 15422 ft 163 kts 208°
2026-05-04 01:19 41.16629 140.98108 15423 ft 163 kts 208°
2026-05-04 01:19 41.15544 140.97662 15419 ft 163 kts 208°
2026-05-04 01:19 41.14461 140.97218 15420 ft 163 kts 208°
2026-05-04 01:19 41.13379 140.96773 15419 ft 163 kts 208°
2026-05-04 01:20 41.12299 140.96330 15424 ft 163 kts 208°
2026-05-04 01:20 41.11217 140.95886 15421 ft 163 kts 208°
2026-05-04 01:20 41.10135 140.95443 15421 ft 163 kts 208°
2026-05-04 01:20 41.09053 140.94999 15425 ft 163 kts 208°
2026-05-04 01:21 41.07985 140.94562 15427 ft 163 kts 208°
2026-05-04 01:21 41.06887 140.94112 15425 ft 163 kts 208°
2026-05-04 01:21 41.05818 140.93674 15422 ft 163 kts 208°
2026-05-04 01:21 41.04731 140.93229 15423 ft 163 kts 208°
2026-05-04 01:22 41.03646 140.92785 15427 ft 163 kts 209°
2026-05-04 01:22 41.02558 140.92340 15427 ft 163 kts 209°
2026-05-04 01:22 41.01471 140.91896 15430 ft 164 kts 209°
2026-05-04 01:22 41.00382 140.91450 15431 ft 164 kts 209°
2026-05-04 01:23 40.99291 140.91004 15432 ft 164 kts 208°
2026-05-04 01:23 40.98196 140.90556 15429 ft 165 kts 208°
2026-05-04 01:23 40.97097 140.90106 15428 ft 166 kts 209°
2026-05-04 01:23 40.95996 140.89658 15431 ft 165 kts 209°
2026-05-04 01:24 40.94893 140.89207 15433 ft 167 kts 209°
2026-05-04 01:24 40.93781 140.88752 15436 ft 167 kts 209°
2026-05-04 01:24 40.92663 140.88296 15435 ft 167 kts 209°
2026-05-04 01:24 40.91551 140.87845 15432 ft 167 kts 209°
2026-05-04 01:25 40.90442 140.87392 15433 ft 168 kts 209°
2026-05-04 01:25 40.89324 140.86936 15432 ft 168 kts 209°
2026-05-04 01:25 40.88211 140.86484 15432 ft 167 kts 210°
2026-05-04 01:25 40.87114 140.86038 15433 ft 167 kts 209°
2026-05-04 01:26 40.86006 140.85587 15436 ft 166 kts 209°
2026-05-04 01:26 40.84898 140.85136 15437 ft 167 kts 209°
2026-05-04 01:26 40.83787 140.84684 15435 ft 167 kts 209°
2026-05-04 01:26 40.82680 140.84234 15435 ft 166 kts 209°
2026-05-04 01:27 40.81574 140.83785 15437 ft 166 kts 210°
2026-05-04 01:27 40.80466 140.83334 15435 ft 167 kts 209°
2026-05-04 01:27 40.79357 140.82883 15438 ft 167 kts 209°
2026-05-04 01:27 40.78245 140.82433 15437 ft 167 kts 209°
2026-05-04 01:28 40.77133 140.81981 15435 ft 168 kts 209°
2026-05-04 01:28 40.76014 140.81527 15443 ft 168 kts 209°
2026-05-04 01:28 40.74904 140.81074 15436 ft 169 kts 209°
2026-05-04 01:28 40.73776 140.80619 15438 ft 170 kts 209°
2026-05-04 01:29 40.72644 140.80159 15442 ft 172 kts 209°
2026-05-04 01:29 40.71503 140.79698 15437 ft 171 kts 209°
2026-05-04 01:29 40.70371 140.79239 15436 ft 169 kts 209°
2026-05-04 01:29 40.69247 140.78786 15443 ft 168 kts 209°
2026-05-04 01:30 40.68125 140.78332 15441 ft 169 kts 209°
2026-05-04 01:30 40.67011 140.77882 15438 ft 165 kts 209°
2026-05-04 01:30 40.65920 140.77444 15437 ft 162 kts 209°
2026-05-04 01:30 40.64843 140.77006 15446 ft 163 kts 210°
2026-05-04 01:31 40.63765 140.76569 15441 ft 161 kts 209°
2026-05-04 01:31 40.62683 140.76131 15438 ft 163 kts 208°
2026-05-04 01:31 40.61603 140.75697 15455 ft 162 kts 209°
2026-05-04 01:31 40.60514 140.75256 15454 ft 165 kts 209°
2026-05-04 01:32 40.59416 140.74812 15455 ft 165 kts 209°
2026-05-04 01:32 40.58319 140.74370 15456 ft 165 kts 209°
2026-05-04 01:32 40.57220 140.73927 15457 ft 165 kts 209°
2026-05-04 01:32 40.56120 140.73485 15461 ft 165 kts 209°
2026-05-04 01:33 40.55016 140.73037 15458 ft 167 kts 209°
2026-05-04 01:33 40.53923 140.72598 15460 ft 166 kts 209°
2026-05-04 01:33 40.52818 140.72154 15463 ft 166 kts 209°
2026-05-04 01:33 40.51712 140.71709 15460 ft 166 kts 209°
2026-05-04 01:34 40.50613 140.71267 15462 ft 165 kts 209°
2026-05-04 01:34 40.49516 140.70826 15462 ft 164 kts 209°
2026-05-04 01:34 40.48420 140.70383 15473 ft 166 kts 209°
2026-05-04 01:34 40.47312 140.69937 15470 ft 167 kts 209°
2026-05-04 01:35 40.46203 140.69493 15469 ft 166 kts 209°
2026-05-04 01:35 40.45098 140.69049 15475 ft 166 kts 209°
2026-05-04 01:35 40.43990 140.68603 15480 ft 168 kts 209°
2026-05-04 01:35 40.42872 140.68155 15483 ft 168 kts 209°
2026-05-04 01:36 40.41759 140.67709 15480 ft 167 kts 209°
2026-05-04 01:36 40.40646 140.67263 15501 ft 167 kts 209°
2026-05-04 01:36 40.39534 140.66815 15496 ft 167 kts 209°
2026-05-04 01:36 40.38425 140.66372 15497 ft 166 kts 209°
2026-05-04 01:37 40.37335 140.65936 15497 ft 166 kts 209°
2026-05-04 01:37 40.36233 140.65494 15500 ft 166 kts 209°
2026-05-04 01:37 40.35123 140.65049 15500 ft 167 kts 208°
2026-05-04 01:37 40.34016 140.64606 15505 ft 166 kts 209°
2026-05-04 01:38 40.32910 140.64163 15505 ft 167 kts 210°
2026-05-04 01:38 40.31802 140.63719 15510 ft 166 kts 208°
2026-05-04 01:38 40.30699 140.63279 15508 ft 165 kts 209°
2026-05-04 01:38 40.29600 140.62840 15507 ft 165 kts 208°
2026-05-04 01:39 40.28504 140.62401 15519 ft 165 kts 208°
2026-05-04 01:39 40.27389 140.61953 15515 ft 168 kts 209°
2026-05-04 01:39 40.26273 140.61510 15517 ft 167 kts 210°
2026-05-04 01:39 40.25164 140.61066 15515 ft 166 kts 209°
2026-05-04 01:40 40.24060 140.60627 15518 ft 165 kts 210°
2026-05-04 01:40 40.22961 140.60188 15519 ft 165 kts 210°
2026-05-04 01:40 40.21863 140.59751 15520 ft 164 kts 210°
2026-05-04 01:40 40.20774 140.59317 15521 ft 163 kts 210°
2026-05-04 01:41 40.19689 140.58885 15518 ft 163 kts 210°
2026-05-04 01:41 40.18621 140.58460 15515 ft 162 kts 210°
2026-05-04 01:41 40.17545 140.58031 15522 ft 162 kts 210°
2026-05-04 01:41 40.16470 140.57603 15522 ft 162 kts 210°
2026-05-04 01:42 40.15393 140.57173 15520 ft 161 kts 210°
2026-05-04 01:42 40.14332 140.56752 15538 ft 161 kts 210°
2026-05-04 01:42 40.13259 140.56321 15532 ft 161 kts 210°
2026-05-04 01:42 40.12177 140.55892 15540 ft 163 kts 210°
2026-05-04 01:43 40.11084 140.55458 15530 ft 164 kts 210°
2026-05-04 01:43 40.09990 140.55023 15521 ft 164 kts 210°
2026-05-04 01:43 40.08908 140.54597 15539 ft 162 kts 210°
2026-05-04 01:43 40.07825 140.54166 15531 ft 162 kts 210°
2026-05-04 01:44 40.06744 140.53737 15533 ft 162 kts 210°
2026-05-04 01:44 40.05674 140.53312 15527 ft 160 kts 210°
2026-05-04 01:44 40.04607 140.52888 15532 ft 160 kts 210°
2026-05-04 01:44 40.03547 140.52471 15475 ft 152 kts 210°
2026-05-04 01:45 40.02572 140.52083 14773 ft 147 kts 211°
2026-05-04 01:45 40.01601 140.51693 14084 ft 143 kts 211°
2026-05-04 01:45 39.99721 140.50944 12615 ft 142 kts 211°
2026-05-04 01:46 39.98766 140.50564 11827 ft 145 kts 211°
2026-05-04 01:46 39.97787 140.50174 11094 ft 149 kts 211°
2026-05-04 01:46 39.96818 140.49800 10897 ft 150 kts 211°
2026-05-04 01:46 39.95768 140.49372 10623 ft 163 kts 210°
2026-05-04 01:47 39.94674 140.48945 10360 ft 164 kts 210°
2026-05-04 01:47 39.93618 140.48540 10356 ft 153 kts 211°
2026-05-04 01:47 39.92612 140.48142 10252 ft 151 kts 211°
2026-05-04 01:47 39.91607 140.47735 9988 ft 155 kts 210°
2026-05-04 01:48 39.90558 140.47321 9707 ft 160 kts 210°
2026-05-04 01:48 39.89481 140.46892 9423 ft 163 kts 210°
2026-05-04 01:48 39.88377 140.46456 9123 ft 167 kts 210°
2026-05-04 01:48 39.87264 140.46019 8850 ft 168 kts 210°
2026-05-04 01:49 39.86143 140.45579 8540 ft 166 kts 209°
2026-05-04 01:49 39.85033 140.45142 8251 ft 169 kts 209°
2026-05-04 01:49 39.83891 140.44687 7953 ft 173 kts 208°
2026-05-04 01:49 39.82740 140.44227 7639 ft 172 kts 210°
2026-05-04 01:50 39.81618 140.43722 7427 ft 169 kts 210°
2026-05-04 01:50 39.80504 140.43258 7180 ft 171 kts 208°
2026-05-04 01:50 39.79349 140.42802 6792 ft 179 kts 204°
2026-05-04 01:50 39.78060 140.42741 6480 ft 186 kts 192°
2026-05-04 01:51 39.76790 140.42748 6242 ft 179 kts 193°
2026-05-04 01:51 39.75544 140.42758 5995 ft 183 kts 192°
2026-05-04 01:51 39.74256 140.42780 5632 ft 191 kts 191°
2026-05-04 01:51 39.72937 140.42788 5308 ft 188 kts 191°
2026-05-04 01:52 39.71619 140.42780 4863 ft 191 kts 192°
2026-05-04 01:52 39.70314 140.42793 4595 ft 188 kts 189°
2026-05-04 01:52 39.69022 140.42826 4237 ft 183 kts 189°
2026-05-04 01:52 39.67756 140.42893 3887 ft 181 kts 189°
2026-05-04 01:53 39.66927 140.42896 3637 ft 180 kts 191°
2026-05-04 01:53 39.65688 140.42881 3409 ft 172 kts 193°
2026-05-04 01:53 39.64558 140.42751 3422 ft 159 kts 199°
2026-05-04 01:53 39.63427 140.42509 3189 ft 172 kts 199°
2026-05-04 01:54 39.62220 140.42286 3005 ft 176 kts 201°
2026-05-04 01:54 39.61134 140.41589 2767 ft 173 kts 225°
2026-05-04 01:54 39.60406 140.40437 2489 ft 161 kts 245°
2026-05-04 01:54 39.60105 140.39090 2258 ft 153 kts 261°
2026-05-04 01:55 39.60171 140.37693 1989 ft 161 kts 273°
2026-05-04 01:55 39.60329 140.36270 1803 ft 158 kts 274°
2026-05-04 01:55 39.60461 140.34889 1725 ft 148 kts 273°
2026-05-04 01:55 39.60578 140.33603 1671 ft 141 kts 272°
2026-05-04 01:56 39.60663 140.32342 1571 ft 141 kts 271°
2026-05-04 01:56 39.60740 140.31061 1493 ft 142 kts 272°
2026-05-04 01:56 39.60850 140.29844 1486 ft 131 kts 272°
2026-05-04 01:56 39.60962 140.28683 1288 ft 135 kts 272°
2026-05-04 01:57 39.61065 140.27437 985 ft 139 kts 272°
2026-05-04 01:57 39.61158 140.26240 793 ft 129 kts 272°
2026-05-04 01:57 39.61257 140.25176 675 ft 107 kts 276°
2026-05-04 01:57 39.61360 140.24259 523 ft 99 kts 271°
2026-05-04 01:58 39.61425 140.23356 408 ft 104 kts 273°
2026-05-04 01:58 39.61512 140.22473 323 ft 87 kts 272°
2026-05-04 01:58 39.61572 140.21792 302 ft 65 kts 276°
2026-05-04 01:58 39.61614 140.21318 301 ft 43 kts 276°
2026-05-04 01:59 39.61601 140.21015 300 ft 23 kts 202°
2026-05-04 01:59 39.61487 140.20951 298 ft 20 kts 247°
2026-05-04 01:59 39.61412 140.20859 298 ft 14 kts 189°
2026-05-04 01:59 39.61368 140.20792 297 ft 9 kts 274°
2026-05-04 02:00 39.61363 140.20754 297 ft 1 kts 178°
2026-05-04 02:00 39.61355 140.20754 298 ft 0 kts 181°